Location: Maccacari
(45.1333°N, 11.1333°E)
Time: 11:48:01
(UTC+00:00)

SR - Pass Details

Date: 18 June 2021
Orbit: 577 x 878 km, 66.7° (Epoch: 24 July)

Event Time Altitude Azimuth Distance (km) Brightness Sun altitude
Rises 00:14:38 0° 330° (NNW) 3,333 ? -20.2°
Reaches altitude 10° 00:17:16 10° 336° (NNW) 2,353 ? -20.1°
Maximum altitude 00:22:26 46° 50° (NE) 990 ? -19.8°
Drops below altitude 10° 00:27:09 10° 124° (ESE) 2,146 ? -19.6°
Enters shadow 00:28:11 - 127° (SE) 2,527 ? -19.5°
